Location: Boissi�res
(45.2500°N, 2.3667°E)
Time: 01:44:14
(UTC+00:00)

Tiangong - Visible Passes

Search period start: 27 September 2021 00:00
Search period end: 07 October 2021 00:00
Orbit: 382 x 385 km, 41.5° (Epoch: 26 September)

Date Brightness Start Highest point End Pass type
(mag) Time Alt. Az. Time Alt. Az. Time Alt. Az.
27 Sep 3.3 04:35:19 10° SSW 04:37:33 19° SSE 04:39:54 10° ESE visible
28 Sep 3.8 03:38:24 13° SE 03:38:24 13° SE 03:39:25 10° ESE visible
28 Sep 2.4 05:11:14 10° SW 05:14:08 33° SSE 05:17:02 10° ESE visible
29 Sep 2.6 04:13:37 24° S 04:14:20 26° SSE 04:17:02 10° ESE visible
30 Sep 4.2 03:16:36 11° ESE 03:16:36 11° ESE 03:16:53 10° ESE visible
30 Sep 2.0 04:48:48 16° WSW 04:50:56 39° S 04:53:56 10° ESE visible
01 Oct 2.6 03:51:44 30° SE 03:51:44 30° SE 03:53:59 10° ESE visible
02 Oct 1.8 04:26:52 32° SW 04:27:44 41° S 04:30:45 10° ESE visible
03 Oct 3.7 03:29:48 18° ESE 03:29:48 18° ESE 03:30:50 10° ESE visible
03 Oct 2.1 05:02:00 14° WSW 05:04:22 33° SSW 05:07:16 10° SE visible
04 Oct 2.1 04:04:58 36° SSE 04:04:58 36° SSE 04:07:28 10° ESE visible
05 Oct 2.4 04:40:10 22° SW 04:41:03 26° SSW 04:43:46 10° SE visible
06 Oct 3.6 03:43:14 16° SE 03:43:14 16° SE 03:44:05 10° SE visible
06 Oct 3.4 05:15:55 10° WSW 05:17:27 13° SSW 05:19:00 10° S visible
